SCP
0 0 0 0 0 0 0 0 0 0 0 0 0 0 0 -0 0 0 0 0 0 0 0 0 0 0 0 0 0 0 0 0 0 0 0 0 0 0 0 0 0 0 0 0
0 0 0 0 0 0 0 0 0 0 0 0 0 0 0 0 -0 0 -0 -0 0 0 0 0 0 0 0 0 0 0 1 0 0 1 0 0 1 1 1 1 0 0 0 0
0 0 0 0 0 0 0 0 0 0 0 0 0 0 0 0 0 0 0 0 0 0 0 0 0 0 0 0 1 0 1 1 1 1 1 1 1 1 1 1 1 1 1 1
0 0 0 0 0 0 0 0 0 0 0 0 0 0 0 0 0 0 0 0 0 -0 0 0 0 0 1 1 1 1 1 1 1 1 1 1 2 1 1 1 1 1 0 0
0 0 0 0 0 0 0 0 0 0 0 0 0 0 0 0 0 0 0 0 0 -0 -0 -0 0 1 0 0 0 0 1 1 0 0 0 0 0 1 0 0 0 0 0 0
0 0 0 0 0 0 0 0 0 -0 0 0 0 0 0 0 0 0 0 0 0 0 0 0 0 0 0 0 0 0 0 0 0 0 0 0 0 0 0 0 0 0 0 0
0 0 0 0 0 0 0 0 0 0 0 0 0 0 0 0 0 0 0 0 0 0 0 0 0 0 0 0 0 0 0 0 0 0 0 0 0 0 0 0 0 0 0 0
0 0 0 0 0 0 0 0 0 0 0 0 0 0 0 0 0 0 0 0 0 0 0 0 0 0 0 0 0 0 0 0 0 0 0 0 0 0 0 0 0 0 0 0
0 0 0 0 0 0 0 0 0 0 0 0 0 0 0 0 0 0 0 0 0 0 0 0 0 0 0 0 0 0 0 0 0 0 0 0 0 0 0 0 0 0 0 0
0 0 -0 0 0 0 0 0 0 0 0 0 0 0 0 0 0 0 0 0 0 0 0 0 0 0 0 0 0 0 0 0 0 0 0 0 0 0 0 0 0 0 0 0
0 -0 0 0 0 0 0 0 0 0 0 0 -0 -0 0 0 0 0 0 0 0 0 0 0 0 0 0 0 0 0 0 0 0 0 0 0 0 0 0 0 0 0 0 0
-0 0 0 0 0 0 0 0 0 0 0 0 0 0 0 0 0 0 0 0 0 0 0 0 0 0 0 0 0 0 0 0 0 0 0 0 0 0 0 0 0 0 0 0
0 0 0 0 0 0 0 0 0 0 0 0 0 0 0 0 0 0 0 0 0 0 0 0 0 0 0 0 0 0 0 0 0 0 0 0 0 0 0 0 0 0 0 0
0 -0 0 -0 -0 -0 0 -0 -0 0 0 -0 0 0 0 0 0 0 0 0 0 0 0 0 0 0 0 0 0 0 0 0 0 0 0 0 0 0 0 0 0 0 0 0
-0 -0 0 -0 -0 -0 -0 -0 -0 0 -0 -0 -0 0 0 0 0 0 0 0 0 0 0 0 0 0 0 0 0 0 0 0 0 0 0 0 0 0 0 0 0 0 0 0
-0 -0 -0 -0 -0 -0 -0 -0 -0 -0 -0 0 -0 -0 0 0 0 0 0 0 0 0 0 0 0 0 0 0 0 0 0 0 0 0 0 0 0 0 0 0 0 0 0 0
-0 -0 -0 -0 -0 -0 -0 -0 -0 -0 0 0 0 0 0 0 0 0 0 0 0 0 0 0 0 0 0 0 0 0 0 0 0 0 0 0 0 0 0 0 0 0 0 0
-0 -0 -0 -0 -0 -0 -0 -0 0 0 -0 -0 -0 -0 -0 -0 0 0 0 0 0 0 0 0 0 0 0 0 0 0 0 0 0 0 0 0 0 0 0 0 0 0 0 0
0 0 -0 -0 -0 -0 0 0 0 0 -0 -0 -0 -0 0 0 0 0 0 0 0 0 0 0 0 0 0 0 0 0 0 0 0 0 0 0 0 0 0 0 0 0 0 0
0 0 0 -0 0 -0 0 0 0 0 0 -0 -0 0 0 0 0 0 0 0 0 0 0 0 0 0 0 0 0 0 0 0 0 0 0 0 0 0 0 0 0 0 0 0
0 0 -0 0 0 -0 -0 -0 -0 -0 -0 -0 -0 -0 0 0 0 0 0 0 0 0 0 0 0 0 0 0 0 0 0 0 0 0 0 0 0 0 0 0 0 0 0 0
0 0 0 0 0 0 -0 -0 -0 -0 -0 -0 0 0 0 0 0 0 0 0 0 0 0 0 0 0 0 0 0 0 0 0 0 0 0 0 0 0 0 0 0 0 0 0
0 0 0 0 0 0 0 0 0 0 0 0 0 0 0 0 0 0 0 0 0 0 0 0 0 0 0 0 0 0 0 0 0 0 0 0 0 0 0 0 0 0 0 0
0 0 0 0 0 0 0 0 0 0 0 0 0 0 0 0 0 0 0 0 0 0 0 0 0 0 0 0 0 0 0 0 0 0 0 0 0 0 0 0 0 0 0 0
0 0 0 0 0 0 0 0 0 0 0 0 0 0 0 0 0 0 0 0 0 0 0 0 0 0 0 0 0 0 0 0 0 0 0 0 0 0 0 0 0 0 0 0
0 0 0 0 0 0 0 0 0 0 0 0 0 0 0 0 0 0 0 0 0 0 0 0 0 0 0 0 0 0 0 0 0 0 0 0 0 0 0 0 0 0 0 0
0 0 0 0 0 0 0 0 0 0 0 0 0 0 0 0 0 0 0 0 0 0 0 0 0 0 0 0 0 0 0 0 0 0 0 0 0 0 0 0 0 0 0 0
Wind_Speed_500mb
11 15 13 11 7 4 7 5 8 1 10 4 4 11 20 21 24 11 12 34 52 53 72 81 74 78 78 70 62 58 56 53 49 43 42 43 45 45 41 39 36 33 36 39
10 7 10 9 8 11 5 5 9 8 13 0 5 7 13 19 23 12 4 19 37 54 63 65 73 70 73 67 65 63 59 57 53 51 45 45 47 47 44 41 41 37 37 34
9 3 7 14 14 11 7 5 6 10 1 7 5 5 10 14 15 13 3 10 27 42 48 55 55 56 60 68 59 62 60 62 61 57 52 48 48 48 44 42 40 36 31 33
8 4 14 4 2 6 14 5 13 9 12 10 7 11 11 12 8 10 11 10 12 19 32 45 47 46 51 56 60 58 55 57 54 58 59 52 49 47 42 39 38 38 33 32
6 7 8 6 12 12 12 7 14 10 15 20 14 5 5 10 9 6 13 12 12 15 16 15 23 31 37 37 41 42 39 40 44 54 62 52 53 41 38 40 42 37 34 29
5 8 10 3 4 4 7 13 32 24 22 24 17 6 4 5 8 9 8 16 20 18 16 14 15 17 20 20 22 26 25 20 32 42 47 53 44 51 39 39 42 45 48 43
11 11 10 4 3 3 11 4 10 23 20 24 8 1 12 11 12 11 12 11 17 18 21 25 26 26 18 15 16 7 6 10 19 33 22 38 42 40 39 30 25 23 25 25
3 8 16 6 9 9 9 11 6 11 15 18 25 19 19 17 17 17 18 14 16 18 16 15 14 13 13 14 14 4 10 10 8 16 16 9 2 11 23 23 15 20 23 18
10 4 2 10 19 13 5 8 8 15 19 30 28 27 22 24 23 24 24 20 18 16 18 19 15 20 19 16 24 20 14 12 8 12 12 13 10 5 2 2 3 5 6 8
4 4 18 14 14 20 10 13 19 23 28 25 25 26 27 26 27 27 27 26 25 23 25 24 18 13 11 15 19 9 8 4 11 9 8 21 14 13 10 6 10 10 9 9
10 18 11 15 16 8 14 27 34 32 31 33 32 28 25 25 29 33 31 28 25 25 25 27 23 23 22 16 9 6 13 12 11 13 10 14 14 8 9 12 12 13 14 14
8 16 6 17 21 23 21 25 25 37 34 30 31 34 32 28 26 29 28 26 24 25 23 25 22 23 23 22 20 18 19 20 17 15 12 11 11 11 10 9 9 5 7 11
3 16 13 19 22 25 31 11 32 33 33 35 31 31 31 35 33 30 28 26 24 24 26 25 24 22 23 21 18 18 16 17 17 17 16 16 16 13 9 8 7 7 9 9
20 27 15 34 27 29 28 32 38 36 32 31 32 32 31 30 29 28 28 27 24 23 22 22 22 21 21 21 20 19 19 18 17 17 15 16 18 17 17 15 13 10 6 6
30 33 28 35 37 33 33 40 42 40 39 35 31 28 25 21 20 18 20 22 22 21 19 19 19 19 21 20 17 17 15 13 12 11 8 7 8 8 8 8 9 8 6 5
32 42 21 41 48 47 41 37 38 38 36 36 34 33 27 20 19 17 15 13 12 12 12 15 18 22 18 15 11 8 6 4 3 3 3 2 1 3 5 4 3 1 2 3
31 29 29 37 50 51 45 37 29 37 35 33 32 30 26 22 22 23 21 18 15 12 10 10 12 13 7 9 10 9 7 5 6 6 7 9 10 11 11 12 12 12 11 12
32 37 38 42 53 51 45 38 26 24 34 29 27 28 26 22 19 22 22 20 18 15 12 9 6 5 5 7 9 9 9 10 12 15 16 16 16 16 16 19 20 21 21 19
33 39 43 45 43 48 46 37 27 22 28 28 28 27 23 22 19 19 19 19 18 18 19 19 17 16 16 14 14 14 14 14 15 17 18 20 21 21 18 20 19 20 18 19
42 40 47 48 42 42 46 40 35 27 26 25 26 25 22 18 15 15 17 21 23 22 20 19 19 22 20 19 19 17 18 20 23 25 24 25 26 26 27 24 22 21 22 19
53 50 51 49 42 38 48 41 36 33 31 31 30 23 22 17 15 12 10 9 9 11 12 10 12 15 14 14 13 14 17 20 23 23 25 27 29 31 31 31 30 26 26 27
55 55 49 44 37 40 49 42 39 38 34 36 29 21 15 16 14 9 6 4 4 5 6 6 5 3 3 5 6 9 13 17 22 27 30 32 31 31 33 40 38 38 32 28
50 47 50 45 40 42 46 42 41 41 37 32 25 20 17 16 11 4 3 5 6 6 5 4 3 2 7 12 15 19 23 26 30 35 38 41 40 39 39 45 47 50 52 47
46 46 50 43 41 44 44 39 40 39 33 27 25 24 24 20 13 8 8 11 13 12 8 3 4 7 7 8 11 16 20 26 29 31 33 36 39 43 44 43 41 45 47 53
44 46 43 40 39 37 34 33 41 44 40 34 33 31 28 21 12 12 17 21 19 14 10 7 4 2 6 10 15 19 24 28 31 32 32 32 33 33 33 35 40 39 46 45
47 43 37 37 37 34 32 35 43 48 47 45 42 38 33 24 21 22 25 22 17 15 11 9 5 6 12 15 17 19 23 29 34 37 40 45 40 34 33 34 35 38 44 50
43 39 43 45 40 34 32 38 43 46 52 52 52 49 42 34 29 28 27 24 16 14 13 11 7 11 16 17 19 18 23 27 32 37 44 50 44 30 28 30 32 35 38 43
Wind_Direction_500mb
279 269 251 274 271 251 208 164 240 179 266 265 301 347 348 352 347 331 189 196 200 202 211 221 225 220 220 220 220 223 222 223 226 225 226 228 228 228 231 235 239 236 241 244
277 283 206 243 276 272 247 193 206 263 270 161 47 1 349 354 352 342 214 201 213 216 216 216 224 221 220 224 225 228 230 233 233 234 230 225 228 229 230 237 244 248 250 252
279 1 220 250 225 227 277 232 260 213 265 149 120 75 11 357 359 7 71 181 211 210 217 223 227 225 220 231 234 237 237 238 238 239 236 231 228 227 232 241 244 245 252 256
284 261 240 51 196 259 247 229 240 255 152 158 127 95 58 21 5 32 72 129 172 208 211 212 220 221 224 226 232 238 241 244 246 240 234 229 227 227 232 237 238 238 247 255
253 239 312 236 201 201 222 215 199 198 150 149 134 122 53 25 25 42 68 95 144 170 184 217 227 227 235 240 241 245 242 238 241 242 226 220 217 217 232 238 241 238 239 266
170 249 267 353 137 133 162 246 187 190 169 159 160 235 117 19 40 56 107 101 110 118 128 145 172 203 221 227 233 213 226 260 285 233 220 233 225 219 228 245 251 254 254 260
232 250 263 279 132 155 232 57 182 193 184 167 172 347 145 129 90 86 105 142 134 127 122 123 126 128 129 146 170 150 243 237 244 247 241 232 223 216 220 224 232 241 240 248
188 237 256 156 154 228 46 47 129 167 184 161 140 134 128 124 110 101 101 111 133 145 149 149 158 174 177 177 169 101 134 145 203 195 173 148 250 228 204 214 218 238 242 254
223 289 173 235 252 252 316 206 164 130 136 140 146 136 129 121 110 98 97 115 127 148 157 168 127 130 130 121 160 155 159 175 187 185 193 179 161 77 30 115 248 260 244 244
262 197 248 257 257 241 204 202 161 151 145 141 144 137 130 125 116 108 105 104 104 114 120 117 116 132 131 138 162 177 153 140 160 184 186 185 170 180 165 204 210 216 223 224
249 263 267 250 232 193 165 155 142 137 142 144 143 138 131 124 119 111 109 107 113 118 114 106 105 104 98 107 157 166 142 138 154 151 166 157 148 161 192 203 218 231 237 244
252 210 188 163 152 113 125 136 152 144 143 138 138 137 136 129 118 111 113 111 109 106 107 104 107 107 107 111 107 110 112 112 110 109 112 106 103 114 119 123 112 128 232 239
190 190 177 170 163 153 129 153 153 149 147 141 142 139 133 123 112 106 108 109 108 106 105 103 100 101 101 104 106 107 110 107 102 98 97 100 103 99 101 120 122 118 123 168
204 173 166 175 176 162 150 143 136 138 145 148 149 146 137 129 119 111 108 112 109 108 107 104 102 104 100 96 98 102 103 104 106 105 109 103 96 92 88 80 76 84 120 154
209 195 202 187 174 167 156 150 147 140 140 147 152 149 147 150 141 135 129 118 112 109 109 110 109 106 102 98 96 94 97 109 106 101 95 97 103 106 93 77 59 71 87 82
207 198 205 185 176 175 168 164 160 159 152 151 148 142 140 148 164 170 157 146 120 122 118 125 125 125 110 94 79 63 52 41 23 4 4 36 246 249 255 271 293 307 249 266
172 182 183 177 178 177 178 178 180 180 169 164 161 154 148 147 161 170 169 166 167 159 147 144 151 157 111 52 24 5 359 339 316 308 293 274 262 257 257 259 269 276 268 270
225 211 203 196 190 186 182 178 171 183 186 173 169 167 172 167 155 161 166 168 177 184 182 181 183 204 250 284 301 301 298 302 308 309 305 298 289 282 277 272 272 274 273 269
213 214 199 199 194 194 184 177 183 175 188 189 187 186 187 183 182 185 192 197 196 199 201 201 209 221 231 242 259 263 269 279 278 277 277 275 274 273 275 273 264 265 265 259
197 206 201 195 194 199 192 186 184 178 179 175 175 184 195 203 207 210 215 220 217 217 217 218 227 227 229 236 240 251 269 278 278 279 281 277 273 267 264 265 263 260 262 257
196 196 198 198 198 201 199 193 191 189 182 182 180 174 175 186 176 163 155 163 183 201 213 223 215 223 238 258 264 266 270 272 271 265 267 272 271 270 266 265 261 260 261 260
198 195 195 193 199 196 196 198 198 199 191 179 173 176 176 168 162 166 179 189 173 155 164 173 171 189 265 296 306 303 300 296 292 288 285 282 270 268 270 267 261 253 250 254
192 192 190 191 191 191 194 199 202 201 193 189 191 189 181 176 174 180 238 231 211 188 186 185 174 289 307 310 311 310 309 309 307 302 294 287 282 278 276 274 269 260 255 250
188 184 183 188 193 197 200 200 198 197 197 196 194 193 192 188 194 229 228 194 177 169 175 207 292 315 341 5 357 349 344 341 334 318 307 299 291 283 276 272 270 269 266 251
181 183 186 194 196 194 196 203 196 194 195 198 196 192 190 195 205 208 187 175 179 188 191 196 199 12 6 356 350 347 348 350 352 351 344 324 307 302 292 279 269 264 265 263
182 184 187 185 186 193 200 195 197 198 200 202 200 199 201 203 200 181 174 175 172 180 185 186 197 302 311 321 323 326 336 341 343 342 339 335 322 296 290 289 279 274 265 259
183 186 188 191 196 200 200 199 204 208 212 213 210 205 203 193 186 181 182 182 179 180 197 212 257 302 305 301 312 315 320 322 330 335 339 342 338 321 303 292 287 279 279 265
Wind_Speed_850mb
11 15 13 11 7 4 7 5 8 1 10 4 4 11 20 21 24 11 12 34 52 53 72 81 74 78 78 70 62 58 56 53 49 43 42 43 45 45 41 39 36 33 36 39
10 7 10 9 8 11 5 5 9 8 13 0 5 7 13 19 23 12 4 19 37 54 63 65 73 70 73 67 65 63 59 57 53 51 45 45 47 47 44 41 41 37 37 34
9 3 7 14 14 11 7 5 6 10 1 7 5 5 10 14 15 13 3 10 27 42 48 55 55 56 60 68 59 62 60 62 61 57 52 48 48 48 44 42 40 36 31 33
8 4 14 4 2 6 14 5 13 9 12 10 7 11 11 12 8 10 11 10 12 19 32 45 47 46 51 56 60 58 55 57 54 58 59 52 49 47 42 39 38 38 33 32
6 7 8 6 12 12 12 7 14 10 15 20 14 5 5 10 9 6 13 12 12 15 16 15 23 31 37 37 41 42 39 40 44 54 62 52 53 41 38 40 42 37 34 29
5 8 10 3 4 4 7 13 32 24 22 24 17 6 4 5 8 9 8 16 20 18 16 14 15 17 20 20 22 26 25 20 32 42 47 53 44 51 39 39 42 45 48 43
11 11 10 4 3 3 11 4 10 23 20 24 8 1 12 11 12 11 12 11 17 18 21 25 26 26 18 15 16 7 6 10 19 33 22 38 42 40 39 30 25 23 25 25
3 8 16 6 9 9 9 11 6 11 15 18 25 19 19 17 17 17 18 14 16 18 16 15 14 13 13 14 14 4 10 10 8 16 16 9 2 11 23 23 15 20 23 18
10 4 2 10 19 13 5 8 8 15 19 30 28 27 22 24 23 24 24 20 18 16 18 19 15 20 19 16 24 20 14 12 8 12 12 13 10 5 2 2 3 5 6 8
4 4 18 14 14 20 10 13 19 23 28 25 25 26 27 26 27 27 27 26 25 23 25 24 18 13 11 15 19 9 8 4 11 9 8 21 14 13 10 6 10 10 9 9
10 18 11 15 16 8 14 27 34 32 31 33 32 28 25 25 29 33 31 28 25 25 25 27 23 23 22 16 9 6 13 12 11 13 10 14 14 8 9 12 12 13 14 14
8 16 6 17 21 23 21 25 25 37 34 30 31 34 32 28 26 29 28 26 24 25 23 25 22 23 23 22 20 18 19 20 17 15 12 11 11 11 10 9 9 5 7 11
3 16 13 19 22 25 31 11 32 33 33 35 31 31 31 35 33 30 28 26 24 24 26 25 24 22 23 21 18 18 16 17 17 17 16 16 16 13 9 8 7 7 9 9
20 27 15 34 27 29 28 32 38 36 32 31 32 32 31 30 29 28 28 27 24 23 22 22 22 21 21 21 20 19 19 18 17 17 15 16 18 17 17 15 13 10 6 6
30 33 28 35 37 33 33 40 42 40 39 35 31 28 25 21 20 18 20 22 22 21 19 19 19 19 21 20 17 17 15 13 12 11 8 7 8 8 8 8 9 8 6 5
32 42 21 41 48 47 41 37 38 38 36 36 34 33 27 20 19 17 15 13 12 12 12 15 18 22 18 15 11 8 6 4 3 3 3 2 1 3 5 4 3 1 2 3
31 29 29 37 50 51 45 37 29 37 35 33 32 30 26 22 22 23 21 18 15 12 10 10 12 13 7 9 10 9 7 5 6 6 7 9 10 11 11 12 12 12 11 12
32 37 38 42 53 51 45 38 26 24 34 29 27 28 26 22 19 22 22 20 18 15 12 9 6 5 5 7 9 9 9 10 12 15 16 16 16 16 16 19 20 21 21 19
33 39 43 45 43 48 46 37 27 22 28 28 28 27 23 22 19 19 19 19 18 18 19 19 17 16 16 14 14 14 14 14 15 17 18 20 21 21 18 20 19 20 18 19
42 40 47 48 42 42 46 40 35 27 26 25 26 25 22 18 15 15 17 21 23 22 20 19 19 22 20 19 19 17 18 20 23 25 24 25 26 26 27 24 22 21 22 19
53 50 51 49 42 38 48 41 36 33 31 31 30 23 22 17 15 12 10 9 9 11 12 10 12 15 14 14 13 14 17 20 23 23 25 27 29 31 31 31 30 26 26 27
55 55 49 44 37 40 49 42 39 38 34 36 29 21 15 16 14 9 6 4 4 5 6 6 5 3 3 5 6 9 13 17 22 27 30 32 31 31 33 40 38 38 32 28
50 47 50 45 40 42 46 42 41 41 37 32 25 20 17 16 11 4 3 5 6 6 5 4 3 2 7 12 15 19 23 26 30 35 38 41 40 39 39 45 47 50 52 47
46 46 50 43 41 44 44 39 40 39 33 27 25 24 24 20 13 8 8 11 13 12 8 3 4 7 7 8 11 16 20 26 29 31 33 36 39 43 44 43 41 45 47 53
44 46 43 40 39 37 34 33 41 44 40 34 33 31 28 21 12 12 17 21 19 14 10 7 4 2 6 10 15 19 24 28 31 32 32 32 33 33 33 35 40 39 46 45
47 43 37 37 37 34 32 35 43 48 47 45 42 38 33 24 21 22 25 22 17 15 11 9 5 6 12 15 17 19 23 29 34 37 40 45 40 34 33 34 35 38 44 50
43 39 43 45 40 34 32 38 43 46 52 52 52 49 42 34 29 28 27 24 16 14 13 11 7 11 16 17 19 18 23 27 32 37 44 50 44 30 28 30 32 35 38 43
Wind_Direction_850mb
279 269 251 274 271 251 208 164 240 179 266 265 301 347 348 352 347 331 189 196 200 202 211 221 225 220 220 220 220 223 222 223 226 225 226 228 228 228 231 235 239 236 241 244
277 283 206 243 276 272 247 193 206 263 270 161 47 1 349 354 352 342 214 201 213 216 216 216 224 221 220 224 225 228 230 233 233 234 230 225 228 229 230 237 244 248 250 252
279 1 220 250 225 227 277 232 260 213 265 149 120 75 11 357 359 7 71 181 211 210 217 223 227 225 220 231 234 237 237 238 238 239 236 231 228 227 232 241 244 245 252 256
284 261 240 51 196 259 247 229 240 255 152 158 127 95 58 21 5 32 72 129 172 208 211 212 220 221 224 226 232 238 241 244 246 240 234 229 227 227 232 237 238 238 247 255
253 239 312 236 201 201 222 215 199 198 150 149 134 122 53 25 25 42 68 95 144 170 184 217 227 227 235 240 241 245 242 238 241 242 226 220 217 217 232 238 241 238 239 266
170 249 267 353 137 133 162 246 187 190 169 159 160 235 117 19 40 56 107 101 110 118 128 145 172 203 221 227 233 213 226 260 285 233 220 233 225 219 228 245 251 254 254 260
232 250 263 279 132 155 232 57 182 193 184 167 172 347 145 129 90 86 105 142 134 127 122 123 126 128 129 146 170 150 243 237 244 247 241 232 223 216 220 224 232 241 240 248
188 237 256 156 154 228 46 47 129 167 184 161 140 134 128 124 110 101 101 111 133 145 149 149 158 174 177 177 169 101 134 145 203 195 173 148 250 228 204 214 218 238 242 254
223 289 173 235 252 252 316 206 164 130 136 140 146 136 129 121 110 98 97 115 127 148 157 168 127 130 130 121 160 155 159 175 187 185 193 179 161 77 30 115 248 260 244 244
262 197 248 257 257 241 204 202 161 151 145 141 144 137 130 125 116 108 105 104 104 114 120 117 116 132 131 138 162 177 153 140 160 184 186 185 170 180 165 204 210 216 223 224
249 263 267 250 232 193 165 155 142 137 142 144 143 138 131 124 119 111 109 107 113 118 114 106 105 104 98 107 157 166 142 138 154 151 166 157 148 161 192 203 218 231 237 244
252 210 188 163 152 113 125 136 152 144 143 138 138 137 136 129 118 111 113 111 109 106 107 104 107 107 107 111 107 110 112 112 110 109 112 106 103 114 119 123 112 128 232 239
190 190 177 170 163 153 129 153 153 149 147 141 142 139 133 123 112 106 108 109 108 106 105 103 100 101 101 104 106 107 110 107 102 98 97 100 103 99 101 120 122 118 123 168
204 173 166 175 176 162 150 143 136 138 145 148 149 146 137 129 119 111 108 112 109 108 107 104 102 104 100 96 98 102 103 104 106 105 109 103 96 92 88 80 76 84 120 154
209 195 202 187 174 167 156 150 147 140 140 147 152 149 147 150 141 135 129 118 112 109 109 110 109 106 102 98 96 94 97 109 106 101 95 97 103 106 93 77 59 71 87 82
207 198 205 185 176 175 168 164 160 159 152 151 148 142 140 148 164 170 157 146 120 122 118 125 125 125 110 94 79 63 52 41 23 4 4 36 246 249 255 271 293 307 249 266
172 182 183 177 178 177 178 178 180 180 169 164 161 154 148 147 161 170 169 166 167 159 147 144 151 157 111 52 24 5 359 339 316 308 293 274 262 257 257 259 269 276 268 270
225 211 203 196 190 186 182 178 171 183 186 173 169 167 172 167 155 161 166 168 177 184 182 181 183 204 250 284 301 301 298 302 308 309 305 298 289 282 277 272 272 274 273 269
213 214 199 199 194 194 184 177 183 175 188 189 187 186 187 183 182 185 192 197 196 199 201 201 209 221 231 242 259 263 269 279 278 277 277 275 274 273 275 273 264 265 265 259
197 206 201 195 194 199 192 186 184 178 179 175 175 184 195 203 207 210 215 220 217 217 217 218 227 227 229 236 240 251 269 278 278 279 281 277 273 267 264 265 263 260 262 257
196 196 198 198 198 201 199 193 191 189 182 182 180 174 175 186 176 163 155 163 183 201 213 223 215 223 238 258 264 266 270 272 271 265 267 272 271 270 266 265 261 260 261 260
198 195 195 193 199 196 196 198 198 199 191 179 173 176 176 168 162 166 179 189 173 155 164 173 171 189 265 296 306 303 300 296 292 288 285 282 270 268 270 267 261 253 250 254
192 192 190 191 191 191 194 199 202 201 193 189 191 189 181 176 174 180 238 231 211 188 186 185 174 289 307 310 311 310 309 309 307 302 294 287 282 278 276 274 269 260 255 250
188 184 183 188 193 197 200 200 198 197 197 196 194 193 192 188 194 229 228 194 177 169 175 207 292 315 341 5 357 349 344 341 334 318 307 299 291 283 276 272 270 269 266 251
181 183 186 194 196 194 196 203 196 194 195 198 196 192 190 195 205 208 187 175 179 188 191 196 199 12 6 356 350 347 348 350 352 351 344 324 307 302 292 279 269 264 265 263
182 184 187 185 186 193 200 195 197 198 200 202 200 199 201 203 200 181 174 175 172 180 185 186 197 302 311 321 323 326 336 341 343 342 339 335 322 296 290 289 279 274 265 259
183 186 188 191 196 200 200 199 204 208 212 213 210 205 203 193 186 181 182 182 179 180 197 212 257 302 305 301 312 315 320 322 330 335 339 342 338 321 303 292 287 279 279 265